• In Deutschland
  • Länderverzeichnis
  • Für 7 Tage
  • Wassertemperatur
  • Satellitenkarten
  • Wetterkarte
  • Widgets
  • user-avatar
    Anmelden

    Stündliche Wetter Plauen

    Heute, 19 August, Sonntag

    Zeit Temperatur Niederschläge Wind Luftdruck Luftfeuchtigkeit
    00:00 +17°C° 0 mm 0 m/S 731 mmHg 89%
    01:00 +19°C° 0 mm 1 m/S 732 mmHg 88%
    02:00 +17°C° 0 mm 0 m/S 731 mmHg 88%
    03:00 +16°C° 0 mm 0 m/S 731 mmHg 88%
    04:00 +16°C° 0 mm 0 m/S 731 mmHg 88%
    05:00 +17°C° 0 mm 0 m/S 731 mmHg 86%
    06:00 +18°C° 0 mm 0 m/S 732 mmHg 83%
    07:00 +19°C° 0 mm 0 m/S 732 mmHg 79%
    08:00 +21°C° 0 mm 0 m/S 732 mmHg 72%
    09:00 +23°C° 0 mm 0 m/S 732 mmHg 65%
    10:00 +25°C° 0 mm 0 m/S 732 mmHg 59%
    11:00 +28°C° 0,2 mm 1 m/S 732 mmHg 56%
    12:00 +29°C° 0,2 mm 1 m/S 732 mmHg 52%
    13:00 +29°C° 0,2 mm 1 m/S 731 mmHg 49%
    14:00 +29°C° 0,2 mm 1 m/S 731 mmHg 49%
    15:00 +29°C° 0,2 mm 1 m/S 731 mmHg 50%
    16:00 +29°C° 0,2 mm 1 m/S 730 mmHg 50%
    17:00 +27°C° 0 mm 1 m/S 730 mmHg 55%
    18:00 +26°C° 0 mm 1 m/S 730 mmHg 59%
    19:00 +24°C° 0 mm 1 m/S 729 mmHg 64%
    20:00 +23°C° 0 mm 1 m/S 730 mmHg 66%
    21:00 +22°C° 0 mm 1 m/S 730 mmHg 68%
    22:00 +21°C° 0 mm 1 m/S 730 mmHg 70%
    23:00 +20°C° 0 mm 1 m/S 730 mmHg 70%

    Morgen, 20 August, Montag

    Zeit Temperatur Niederschläge Wind Luftdruck Luftfeuchtigkeit
    00:00 +20°C° 0 mm 1 m/S 730 mmHg 71%
    01:00 +19°C° 0 mm 1 m/S 730 mmHg 71%
    02:00 +19°C° 0 mm 1 m/S 730 mmHg 72%
    03:00 +19°C° 0 mm 1 m/S 729 mmHg 73%
    04:00 +18°C° 0 mm 1 m/S 729 mmHg 74%
    05:00 +19°C° 0 mm 1 m/S 729 mmHg 74%
    06:00 +20°C° 0 mm 1 m/S 730 mmHg 73%
    07:00 +19°C° 0 mm 2 m/S 730 mmHg 73%
    08:00 +21°C° 0 mm 2 m/S 730 mmHg 68%
    09:00 +24°C° 0 mm 3 m/S 730 mmHg 64%
    10:00 +25°C° 0 mm 3 m/S 731 mmHg 60%
    11:00 +25°C° 0 mm 3 m/S 730 mmHg 61%
    12:00 +26°C° 0 mm 3 m/S 730 mmHg 61%
    13:00 +26°C° 0 mm 4 m/S 730 mmHg 61%
    14:00 +26°C° 0 mm 4 m/S 730 mmHg 61%
    15:00 +26°C° 0 mm 3 m/S 730 mmHg 61%
    16:00 +26°C° 0 mm 3 m/S 730 mmHg 61%
    17:00 +25°C° 0 mm 3 m/S 730 mmHg 67%
    18:00 +23°C° 0 mm 2 m/S 730 mmHg 73%
    19:00 +21°C° 0 mm 2 m/S 729 mmHg 79%
    20:00 +21°C° 0 mm 1 m/S 730 mmHg 83%
    21:00 +20°C° 0 mm 1 m/S 730 mmHg 86%
    22:00 +19°C° 0 mm 1 m/S 731 mmHg 89%
    23:00 +19°C° 0 mm 1 m/S 731 mmHg 91%

    übermorgen, 21 August, Dienstag

    Zeit Temperatur Niederschläge Wind Luftdruck Luftfeuchtigkeit
    00:00 +19°C° 0 mm 1 m/S 731 mmHg 92%
    01:00 +18°C° 0 mm 1 m/S 731 mmHg 93%
    02:00 +18°C° 0 mm 1 m/S 731 mmHg 93%
    03:00 +18°C° 0 mm 1 m/S 731 mmHg 94%
    04:00 +16°C° 0 mm 1 m/S 731 mmHg 94%
    05:00 +18°C° 0 mm 1 m/S 731 mmHg 92%
    06:00 +18°C° 0 mm 1 m/S 732 mmHg 89%
    07:00 +18°C° 0 mm 1 m/S 732 mmHg 87%
    08:00 +20°C° 0 mm 1 m/S 732 mmHg 82%
    09:00 +21°C° 0 mm 1 m/S 732 mmHg 76%
    10:00 +22°C° 0 mm 1 m/S 732 mmHg 71%
    11:00 +23°C° 0,1 mm 2 m/S 732 mmHg 68%
    12:00 +24°C° 0,1 mm 2 m/S 732 mmHg 66%
    13:00 +25°C° 0,1 mm 2 m/S 732 mmHg 63%
    14:00 +25°C° 0 mm 2 m/S 732 mmHg 62%
    15:00 +25°C° 0 mm 2 m/S 731 mmHg 61%
    16:00 +25°C° 0 mm 2 m/S 731 mmHg 60%
    17:00 +24°C° 0 mm 2 m/S 731 mmHg 66%
    18:00 +23°C° 0 mm 2 m/S 731 mmHg 71%
    19:00 +21°C° 0 mm 2 m/S 730 mmHg 77%
    20:00 +20°C° 0 mm 2 m/S 731 mmHg 79%
    21:00 +19°C° 0 mm 2 m/S 731 mmHg 81%
    22:00 +19°C° 0 mm 2 m/S 731 mmHg 82%
    23:00 +19°C° 0 mm 1 m/S 731 mmHg 83%

    22 August, Mittwoch

    Zeit Temperatur Niederschläge Wind Luftdruck Luftfeuchtigkeit
    00:00 +19°C° 0 mm 1 m/S 731 mmHg 83%
    01:00 +19°C° 0 mm 1 m/S 731 mmHg 83%
    02:00 +19°C° 0 mm 1 m/S 731 mmHg 84%
    03:00 +19°C° 0 mm 1 m/S 730 mmHg 84%
    04:00 +19°C° 0 mm 1 m/S 730 mmHg 84%
    05:00 +19°C° 0 mm 1 m/S 730 mmHg 83%
    06:00 +20°C° 0 mm 1 m/S 730 mmHg 81%
    07:00 +20°C° 0 mm 1 m/S 730 mmHg 80%
    08:00 +22°C° 0 mm 1 m/S 730 mmHg 74%
    09:00 +24°C° 0 mm 1 m/S 731 mmHg 68%
    10:00 +26°C° 0 mm 2 m/S 731 mmHg 62%
    11:00 +27°C° 0,1 mm 2 m/S 730 mmHg 58%
    12:00 +28°C° 0,1 mm 2 m/S 730 mmHg 54%
    13:00 +29°C° 0,1 mm 2 m/S 730 mmHg 50%
    14:00 +29°C° 0,1 mm 2 m/S 729 mmHg 51%
    15:00 +29°C° 0,1 mm 1 m/S 729 mmHg 51%
    16:00 +29°C° 0,1 mm 1 m/S 729 mmHg 52%
    17:00 +27°C° 0 mm 1 m/S 729 mmHg 57%
    18:00 +26°C° 0 mm 1 m/S 728 mmHg 63%
    19:00 +22°C° 0 mm 0 m/S 728 mmHg 68%
    20:00 +21°C° 0 mm 0 m/S 728 mmHg 71%
    21:00 +20°C° 0 mm 0 m/S 728 mmHg 74%
    22:00 +19°C° 0 mm 0 m/S 728 mmHg 76%
    23:00 +19°C° 0 mm 0 m/S 728 mmHg 78%

    23 August, Donnerstag

    Zeit Temperatur Niederschläge Wind Luftdruck Luftfeuchtigkeit
    00:00 +18°C° 0 mm 0 m/S 728 mmHg 80%
    01:00 +18°C° 0 mm 0 m/S 728 mmHg 81%
    02:00 +18°C° 0 mm 0 m/S 728 mmHg 82%
    03:00 +17°C° 0 mm 0 m/S 728 mmHg 83%
    04:00 +17°C° 0 mm 0 m/S 728 mmHg 84%
    05:00 +18°C° 0,1 mm 0 m/S 728 mmHg 82%
    06:00 +19°C° 0,1 mm 0 m/S 728 mmHg 79%
    07:00 +20°C° 0,1 mm 0 m/S 728 mmHg 77%
    08:00 +24°C° 0,4 mm 1 m/S 728 mmHg 72%
    09:00 +25°C° 0,4 mm 1 m/S 728 mmHg 67%
    10:00 +27°C° 0,4 mm 1 m/S 728 mmHg 62%
    11:00 +28°C° 0,8 mm 1 m/S 727 mmHg 60%
    12:00 +28°C° 0,8 mm 1 m/S 727 mmHg 57%
    13:00 +29°C° 0,8 mm 1 m/S 727 mmHg 55%
    14:00 +29°C° 0,6 mm 1 m/S 726 mmHg 55%
    15:00 +28°C° 0,6 mm 1 m/S 726 mmHg 56%
    16:00 +28°C° 0,6 mm 1 m/S 725 mmHg 56%
    17:00 +27°C° 0,3 mm 1 m/S 725 mmHg 62%
    18:00 +25°C° 0,3 mm 1 m/S 725 mmHg 67%
    19:00 +24°C° 0,3 mm 1 m/S 725 mmHg 73%
    20:00 +23°C° 0 mm 1 m/S 724 mmHg 75%
    21:00 +22°C° 0 mm 1 m/S 724 mmHg 78%
    22:00 +20°C° 0 mm 2 m/S 724 mmHg 80%
    23:00 +20°C° 0 mm 2 m/S 724 mmHg 81%

    24 August, Freitag

    Zeit Temperatur Niederschläge Wind Luftdruck Luftfeuchtigkeit
    00:00 +20°C° 0 mm 2 m/S 724 mmHg 82%
    01:00 +19°C° 0 mm 2 m/S 723 mmHg 83%
    02:00 +19°C° 0 mm 2 m/S 723 mmHg 84%
    03:00 +18°C° 0 mm 2 m/S 723 mmHg 85%
    04:00 +18°C° 0 mm 2 m/S 723 mmHg 87%
    05:00 +19°C° 0,1 mm 2 m/S 723 mmHg 85%
    06:00 +19°C° 0,1 mm 2 m/S 723 mmHg 84%
    07:00 +20°C° 0,1 mm 2 m/S 723 mmHg 82%
    08:00 +21°C° 0,7 mm 2 m/S 723 mmHg 78%
    09:00 +23°C° 0,7 mm 2 m/S 723 mmHg 74%
    10:00 +25°C° 0,7 mm 2 m/S 723 mmHg 70%
    11:00 +24°C° 1,5 mm 2 m/S 723 mmHg 71%
    12:00 +24°C° 1,5 mm 2 m/S 722 mmHg 72%
    13:00 +24°C° 1,5 mm 2 m/S 722 mmHg 73%
    14:00 +23°C° 1,5 mm 2 m/S 722 mmHg 78%
    15:00 +20°C° 1,5 mm 3 m/S 722 mmHg 83%
    16:00 +19°C° 1,5 mm 4 m/S 722 mmHg 89%
    17:00 +18°C° 0,5 mm 3 m/S 722 mmHg 90%
    18:00 +17°C° 0,5 mm 3 m/S 722 mmHg 92%
    19:00 +16°C° 0,5 mm 2 m/S 723 mmHg 93%
    20:00 +15°C° 0,1 mm 2 m/S 723 mmHg 93%
    21:00 +14°C° 0,1 mm 3 m/S 723 mmHg 92%
    22:00 +13°C° 0,1 mm 3 m/S 723 mmHg 92%
    23:00 +14°C° 0,1 mm 2 m/S 723 mmHg 93%
    Mehr zeigen